Погода в Кашхатау

Россия / Кабардино-Балкарская Республика     43°18′59″N   43°36′19″E
темп.,
°C
ветер,
м/с
пор.,
м/с
влажн.,
%
обл.,
%
осадки,
мм/ч
давл.,
гПа
погр.,
м
8 марта, пн
пн800:00−8зюз236830 0.0 102232
03:00−10з117115 0.0 102222
06:00−11зюз228226 0.0 102223
09:00−7ссв119058 0.0 1020139
12:00−5всв219599 0.1 1018378
15:00−5всв2295100 0.4 1017287
18:00−7св1198100 0.8 101849
21:00−8юз237490 1.1 102023
9 марта, вт
вт900:00−9юз237364 0.0 101924
03:00−10юз337377 0.0 101925
06:00−11юз237193 0.0 101926
09:00−6св118353 0.0 1018208
12:00−4св219554 0.1 1017423
15:00−3св229368 0.2 1016500
18:00−6в019197 0.5 101837
21:00−9юз337194 0.8 102239
10 марта, ср
ср1000:00−10юз346722 0.0 102341
03:00−11юз336618 0.1 102436
06:00−11ююз337785 0.1 102532
09:00−7св229490 0.3 1025256
12:00−6всв339798 0.8 1022413
15:00−6всв339699 1.6 1021371
18:00−8в2298100 0.8 102179
21:00−10юв1192100 1.1 102027
11 марта, чт
чт1100:00−9всв2395100 0.5 1018155
03:00−10всв1197100 0.9 101750
06:00−12юз1294100 0.4 101631
09:00−9всв1296100 1.2 1014234
12:00−7всв3598100 1.9 1012655
15:00−8всв4598100 6.0 1013537
18:00−11всв3498100 4.1 1016350
21:00−14всв1299100 6.4 1019101
12 марта, пт
пт1200:00−16ююз1197100 0.8 102022
03:00−16ююз1196100 1.3 102123
06:00−17ююз0196100 0.3 102420
09:00−14всв2197100 0.4 1025337
12:00−12всв3295100 0.4 1025519
15:00−11всв3397100 1.3 1025487
18:00−14всв1299100 1.1 102871
21:00−16ююз1189100 1.4 103022